星链-36475(STARLINK-36475)

导读 | 豆包AI

STARLINK-36475是美国SpaceX星链互联网卫星星座的一员,于2026年1月9日发射入轨。星链计划旨在构建全球卫星互联网,为地面偏远地区提供高速宽带接入。该卫星延续星链标准设计,依托低轨部署降低通信延迟,服务覆盖全球,持续推进星座组网,助力SpaceX完成全球卫星通信网络的部署目标。

基本信息
目录编号:
67350
目录名称:
STARLINK-36475
国际标识:
2026-003S
轨道中心:
EARTH
卫星名称:
星链-36475
卫星全名:
星链-36475(STARLINK-36475)
卫星状态:
在轨 (已飞行85 天)
发射日期:
2026-01-09 UTC
国别 :
美国 (US)
星等 :
--
轨道信息
数据来源 国际轨道数据
星历时间: 2026-04-03T14:09:03+0800
18小时前
查看轨道信息
半长轴: 6861.098km
偏心率: 0.0001391
轨道倾角: 43.002°
近地点辐角 273.171°
升交点赤经 88.096°
平近点角 86.898°
近地点: 482.006km
远地点: 483.916km
周期: 94.265分钟
每日圈数: 15.276095
详细信息
固有亮度:
5
最大亮度:
2.5
卫星平台:
Starlink V1.0
覆盖范围:
全球
运营商:
太空探索技术公司
运营商所在国:
美国
制造商(研发单位):
太空探索技术公司
制造商所在国:
美国
使用方式:
暂无
卫星简介
Starlink 计划是 SpaceX 推出的全球卫星互联网项目,通过发射低轨道卫星,为全球尤其是偏远地区提供高速、低延迟的互联网服务。自 2019 年起,Starlink 已部署数千颗卫星,旨在缩小全球数字鸿沟,推动互联网普及。该项目还为军事、航空等行业提供通信支持,带来广泛经济效益。
2D轨道图
3D轨道图
轨道高度分析图
轨道倾角分析图
轨道综合分析图
查看轨道综合分析图